Location: Hamilton
(37.7830°S, 175.2830°E)
Time: 03:35:35
(UTC+13:00)

ISS - Pass Details

Date: 02 February 2019
Orbit: 403 x 411 km, 51.6° (Epoch: 20 February)

Event Time Altitude Azimuth Distance (km) Brightness Sun altitude
Exits shadow 04:31:00 48° 206° (SSW) 556 -3.1 -21.0°
Drops below altitude 10° 04:34:08 10° 140° (SE) 1,498 0.2 -20.5°
Sets 04:36:17 0° 133° (SE) 2,364 1.7 -20.2°
